Hourly Weather Allanton

Today, 9 March, Tuesday

Time Temperature Precipitation Wind Pressure Humidity
00:00 +3°C° 0 mm 3 mps 757 mmHg 96%
01:00 +4°C° 0 mm 3 mps 757 mmHg 95%
02:00 +4°C° 0 mm 3 mps 756 mmHg 95%
03:00 +4°C° 0 mm 3 mps 756 mmHg 94%
04:00 +5°C° 0 mm 2 mps 756 mmHg 95%
05:00 +4°C° 0 mm 2 mps 756 mmHg 95%
06:00 +4°C° 0 mm 2 mps 756 mmHg 95%
07:00 +4°C° 0 mm 3 mps 755 mmHg 93%
08:00 +5°C° 0 mm 4 mps 755 mmHg 91%
09:00 +6°C° 0 mm 4 mps 755 mmHg 88%
10:00 +7°C° 0 mm 4 mps 755 mmHg 86%
11:00 +7°C° 0 mm 5 mps 754 mmHg 84%
12:00 +8°C° 0 mm 5 mps 754 mmHg 82%
13:00 +8°C° 0 mm 6 mps 753 mmHg 80%
14:00 +8°C° 0 mm 6 mps 753 mmHg 78%
15:00 +8°C° 0 mm 7 mps 752 mmHg 76%
16:00 +6°C° 0 mm 7 mps 752 mmHg 79%
17:00 +6°C° 0 mm 7 mps 751 mmHg 82%
18:00 +6°C° 0 mm 7 mps 750 mmHg 85%
19:00 +5°C° 0 mm 8 mps 749 mmHg 83%
20:00 +5°C° 0 mm 8 mps 749 mmHg 82%
21:00 +5°C° 0 mm 9 mps 748 mmHg 80%
22:00 +3°C° 0.3 mm 9 mps 747 mmHg 82%
23:00 +3°C° 0.3 mm 10 mps 746 mmHg 85%

Tomorrow, 10 March, Wednesday

Time Temperature Precipitation Wind Pressure Humidity
00:00 +3°C° 0.3 mm 10 mps 745 mmHg 87%
01:00 +3°C° 0.4 mm 10 mps 744 mmHg 87%
02:00 +5°C° 0.4 mm 10 mps 744 mmHg 88%
03:00 +5°C° 0.4 mm 9 mps 743 mmHg 88%
04:00 +4°C° 0.1 mm 8 mps 743 mmHg 86%
05:00 +3°C° 0.1 mm 6 mps 743 mmHg 85%
06:00 +3°C° 0.1 mm 5 mps 743 mmHg 83%
07:00 +3°C° 0 mm 5 mps 743 mmHg 81%
08:00 +3°C° 0 mm 5 mps 743 mmHg 78%
09:00 +3°C° 0 mm 6 mps 743 mmHg 76%
10:00 +4°C° 0 mm 6 mps 743 mmHg 73%
11:00 +4°C° 0 mm 6 mps 743 mmHg 71%
12:00 +5°C° 0 mm 6 mps 743 mmHg 68%
13:00 +5°C° 0.1 mm 6 mps 741 mmHg 73%
14:00 +4°C° 0.1 mm 6 mps 740 mmHg 78%
15:00 +4°C° 0.1 mm 6 mps 739 mmHg 83%
16:00 +4°C° 0.7 mm 6 mps 737 mmHg 87%
17:00 +5°C° 0.7 mm 7 mps 735 mmHg 90%
18:00 +5°C° 0.7 mm 8 mps 733 mmHg 94%
19:00 +6°C° 0.6 mm 9 mps 732 mmHg 91%
20:00 +7°C° 0.6 mm 10 mps 730 mmHg 88%
21:00 +8°C° 0.6 mm 11 mps 729 mmHg 85%
22:00 +7°C° 0.4 mm 11 mps 728 mmHg 84%
23:00 +6°C° 0.4 mm 10 mps 727 mmHg 83%

Day after tomorrow, 11 March, Thursday

Time Temperature Precipitation Wind Pressure Humidity
00:00 +5°C° 0.4 mm 10 mps 727 mmHg 83%
01:00 +4°C° 0.5 mm 11 mps 725 mmHg 84%
02:00 +4°C° 0.5 mm 12 mps 723 mmHg 85%
03:00 +3°C° 0.5 mm 13 mps 722 mmHg 87%
04:00 +4°C° 0.5 mm 14 mps 721 mmHg 85%
05:00 +4°C° 0.5 mm 15 mps 721 mmHg 83%
06:00 +4°C° 0.5 mm 16 mps 721 mmHg 81%
07:00 +4°C° 0 mm 15 mps 723 mmHg 77%
08:00 +3°C° 0 mm 14 mps 725 mmHg 73%
09:00 +3°C° 0 mm 13 mps 727 mmHg 69%
10:00 +3°C° 0.1 mm 13 mps 728 mmHg 71%
11:00 +3°C° 0.1 mm 12 mps 729 mmHg 73%
12:00 +3°C° 0.1 mm 12 mps 730 mmHg 75%
13:00 +3°C° 0.1 mm 12 mps 731 mmHg 71%
14:00 +3°C° 0.1 mm 12 mps 731 mmHg 68%
15:00 +3°C° 0.1 mm 12 mps 732 mmHg 64%
16:00 +2°C° 0.1 mm 12 mps 732 mmHg 67%
17:00 +2°C° 0.1 mm 12 mps 733 mmHg 71%
18:00 0°C° 0.1 mm 12 mps 733 mmHg 74%
19:00 0°C° 0.3 mm 13 mps 734 mmHg 74%
20:00 0°C° 0.3 mm 13 mps 734 mmHg 74%
21:00 0°C° 0.3 mm 14 mps 735 mmHg 74%
22:00 -1°C° 0 mm 13 mps 736 mmHg 78%
23:00 -1°C° 0 mm 13 mps 736 mmHg 82%

12 March, Friday

Time Temperature Precipitation Wind Pressure Humidity
00:00 -1°C° 0 mm 12 mps 737 mmHg 85%
01:00 -1°C° 0 mm 12 mps 737 mmHg 84%
02:00 -1°C° 0 mm 11 mps 737 mmHg 82%
03:00 -1°C° 0 mm 11 mps 737 mmHg 81%
04:00 -1°C° 0 mm 11 mps 737 mmHg 82%
05:00 0°C° 0 mm 10 mps 737 mmHg 83%
06:00 0°C° 0 mm 10 mps 737 mmHg 85%
07:00 +1°C° 0 mm 9 mps 737 mmHg 83%
08:00 +1°C° 0 mm 9 mps 737 mmHg 81%
09:00 +2°C° 0 mm 8 mps 737 mmHg 78%
10:00 +4°C° 0 mm 8 mps 737 mmHg 74%
11:00 +4°C° 0 mm 8 mps 737 mmHg 70%
12:00 +5°C° 0 mm 8 mps 737 mmHg 66%
13:00 +5°C° 0.1 mm 8 mps 737 mmHg 66%
14:00 +5°C° 0.1 mm 8 mps 736 mmHg 65%
15:00 +5°C° 0.1 mm 9 mps 736 mmHg 65%
16:00 +4°C° 0 mm 8 mps 736 mmHg 68%
17:00 +2°C° 0 mm 8 mps 736 mmHg 70%
18:00 +2°C° 0 mm 7 mps 736 mmHg 73%
19:00 0°C° 0 mm 7 mps 736 mmHg 76%
20:00 0°C° 0 mm 7 mps 736 mmHg 78%
21:00 -1°C° 0 mm 6 mps 736 mmHg 81%
22:00 -1°C° 0 mm 6 mps 735 mmHg 85%
23:00 +1°C° 0 mm 6 mps 734 mmHg 88%

13 March, Saturday

Time Temperature Precipitation Wind Pressure Humidity
00:00 +1°C° 0 mm 5 mps 733 mmHg 91%
01:00 +1°C° 0.2 mm 5 mps 732 mmHg 91%
02:00 +1°C° 0.2 mm 5 mps 731 mmHg 91%
03:00 +2°C° 0.2 mm 5 mps 730 mmHg 90%
04:00 +2°C° 0.1 mm 6 mps 730 mmHg 90%
05:00 +2°C° 0.1 mm 7 mps 730 mmHg 89%
06:00 0°C° 0.1 mm 8 mps 729 mmHg 88%
07:00 +1°C° 0 mm 8 mps 730 mmHg 85%
08:00 +2°C° 0 mm 8 mps 730 mmHg 82%
09:00 +3°C° 0 mm 7 mps 730 mmHg 79%
10:00 +4°C° 0 mm 8 mps 730 mmHg 74%
11:00 +3°C° 0 mm 9 mps 730 mmHg 69%
12:00 +5°C° 0 mm 10 mps 731 mmHg 64%
13:00 +5°C° 0.1 mm 9 mps 731 mmHg 64%
14:00 +5°C° 0.1 mm 9 mps 732 mmHg 64%
15:00 +5°C° 0.1 mm 8 mps 732 mmHg 64%
16:00 +4°C° 0.1 mm 8 mps 733 mmHg 68%
17:00 +3°C° 0.1 mm 7 mps 734 mmHg 72%
18:00 +2°C° 0.1 mm 6 mps 735 mmHg 76%
19:00 +2°C° 0 mm 6 mps 735 mmHg 78%
20:00 +1°C° 0 mm 6 mps 736 mmHg 80%
21:00 +1°C° 0 mm 6 mps 737 mmHg 82%
22:00 -1°C° 0 mm 6 mps 737 mmHg 82%
23:00 -1°C° 0 mm 6 mps 738 mmHg 81%

14 March, Sunday

Time Temperature Precipitation Wind Pressure Humidity
00:00 -1°C° 0 mm 6 mps 738 mmHg 81%
01:00 -1°C° 0 mm 6 mps 739 mmHg 82%
02:00 -1°C° 0 mm 6 mps 740 mmHg 83%
03:00 +1°C° 0 mm 6 mps 740 mmHg 84%
04:00 0°C° 0 mm 7 mps 741 mmHg 84%
05:00 0°C° 0 mm 7 mps 742 mmHg 84%
06:00 0°C° 0 mm 7 mps 743 mmHg 84%
07:00 +1°C° 0 mm 8 mps 744 mmHg 80%
08:00 +4°C° 0 mm 8 mps 745 mmHg 76%
09:00 +5°C° 0 mm 8 mps 746 mmHg 72%
10:00 +5°C° 0 mm 8 mps 746 mmHg 69%
11:00 +6°C° 0 mm 8 mps 747 mmHg 65%
12:00 +8°C° 0 mm 7 mps 748 mmHg 62%
13:00 +8°C° 0 mm 7 mps 749 mmHg 63%
14:00 +8°C° 0 mm 7 mps 749 mmHg 63%
15:00 +8°C° 0 mm 7 mps 750 mmHg 64%
16:00 +7°C° 0 mm 6 mps 750 mmHg 67%
17:00 +5°C° 0 mm 6 mps 750 mmHg 70%
18:00 +6°C° 0 mm 5 mps 750 mmHg 74%
19:00 +5°C° 0.4 mm 4 mps 750 mmHg 80%
20:00 +5°C° 0.4 mm 3 mps 751 mmHg 86%
21:00 +5°C° 0.4 mm 2 mps 751 mmHg 92%
22:00 +5°C° 0.3 mm 2 mps 751 mmHg 93%
23:00 +4°C° 0.3 mm 3 mps 751 mmHg 93%
Show more